Preview of NWS' New Version of Forecast
This preview is not operational and should not be used for support decisions.

Regional Weather Roundup (RWR)

Issued by Gray - Portland, ME (GYX)

                            
000
ASUS41 KGYX 201010
RWRGYX
WEATHER ROUNDUP FOR MAINE AND NEW HAMPSHIRE
NATIONAL WEATHER SERVICE GRAY ME
600 AM EDT SAT APR 20 2019

MEZ002-005-006-010-012-015-018-020-021-024-026-027-029-201100-
MAINE
  
CITY           SKY/WX    TMP DP  RH WIND       PRES   REMARKS
PORTLAND       FOG       53  53 100 S12G21    29.77R VSB 1/2          
SANFORD        FAIR      64  62  93 S9        29.76R                  
BAR HARBOR     FOG       52  52 100 SW17G28   29.82S VSB 3/4          
WISCASSET      CLOUDY    57  55  93 S15G26    29.80R                  
ROCKLAND       LGT RAIN  50  49  96 SW12G24   29.81R VSB 1/2          
FRYEBURG       LGT RAIN  64  62  93 CALM      29.72R                  
LEWISTONAUBURN LGT RAIN  59  59 100 S10       29.75R FOG              
AUGUSTA        CLOUDY    59  59 100 SW12G23   29.77R FOG              
WATERVILLE     LGT RAIN  59  59 100 S9        29.73R FOG              
BANGOR         LGT RAIN  45  45 100 N3        29.78S FOG              
GREENVILLE       N/A     40  39  97 SE6       29.74R                  
MILLINOCKET    LGT RAIN  41  38  89 NE6       29.82R FOG              
HOULTON        RAIN      41  41 100 VRB7G18   29.82F FOG              
PRESQUE ISLE   RAIN      37  37 100 NE12      29.88F FOG              
FRENCHVILLE    RAIN      38  34  85 NE10      29.91R FOG              
CARIBOU        HVY RAIN  38  36  92 NE9       29.88F FOG              
$$

NHZ002-005-008-009-011-012-014-201100-
NEW HAMPSHIRE
  
CITY           SKY/WX    TMP DP  RH WIND       PRES   REMARKS
PORTSMOUTH     LGT RAIN  67  63  86 S10       29.75R                  
ROCHESTER      MOCLDY    67  64  90 S7        29.74R                  
NASHUA           N/A     67  65  93 VRB7      29.77R                  
MANCHESTER     CLOUDY    69  62  78 S14G22    29.74R                  
CONCORD        MOCLDY    65  63  93 S5        29.75R                  
LACONIA        CLOUDY    66  63  90 S14G21    29.73R                  
PLYMOUTH       CLOUDY    53  52  96 CALM      29.71R FOG              
BERLIN         LGT RAIN  50  49  96 CALM      29.67S FOG              
WHITEFIELD     CLOUDY    68  57  68 SW12G18   29.67R                  
JAFFREY        HVY RAIN  63  60  90 S13       29.77R FOG              
KEENE          LGT RAIN  65  62  90 S8        29.74R                  
LEBANON        CLOUDY    67  61  81 S20G29    29.68R                  
MT WASHINGTON  LGT RAIN  46  46 100 SW51G86     N/A  VSB 1/16         
$$

VTZ005-007-008-201100-
VERMONT
  
CITY           SKY/WX    TMP DP  RH WIND       PRES   REMARKS
ST JOHNSBURY     N/A     64  62  93 MISG      29.64R                  
MONTPELIER     LGT RAIN  49  47  93 CALM      29.70R                  
BURLINGTON     LGT RAIN  42  40  92 NW6       29.73R                  
$$

MAZ007-012-024-CTZ003-RIZ002-NYZ038-NYZ072-201100-
SOUTHERN NEW ENGLAND AND NY
  
CITY           SKY/WX    TMP DP  RH WIND       PRES   REMARKS
BOSTON         CLOUDY    66  62  87 S16G28    29.81R                  
WORCESTER      LGT RAIN  62  61  96 S12G22    29.80R                  
NANTUCKET      CLOUDY    53  52  96 S18       29.90S FOG              
PROVIDENCE     CLOUDY    64  63  96 S18       29.83R                  
HARTFORD       LGT RAIN  63  61  93 SE9       29.76R                  
ALBANY         CLOUDY    68  61  78 S15G23    29.65S                  
NEW YORK CITY  CLOUDY    59  58  96 S10       29.72S                  
$$

ANZ081-ANZ082-ANZ150-NHZ014-MEZ023>029-201100-
COASTAL MARINE OBSERVATIONS
  
STATION/POSITION TIME  TEMP    WIND        PRES    WAVE
                       AIR SEA DIR/SP/G            HT/PER
                 (UTC) (F)     (DEG/KT/KT) (MB)    (FT/S)
ISLE OF SHOALS   1000   58     180/ 30/ 31 1007.9R
JEFFREYS LEDGE   0908      41                N/A     6/ 7
CASHES LEDGE BUO 0950   48 42              1010.3R   8/ 8
$$

.............KEY..............
   WCI - WIND CHILL
   TC  - TEMPERATURE IN CELSIUS
   VSB - VISIBILITY IN MILES
   HX  - HEAT INDEX
   FAIR- INDICATES FEW OR NO CLOUDS BELOW 12,000 FT, WITH NO 
         SIGNIFICANT WEATHER AND/OR OBSTRUCTIONS TO VISIBILITY.